User: anonymous   Login
Location: Theydon Bois
(51.6750°N, 0.1050°E)
Time: 05:55:13
(UTC+01:00)
Language:

Aureole 1 Rocket - Orbit

View from above orbital plane
View from above orbital plane
View from above satellite
View from above satellite

Ground track
Ground track

The orbit data is extracted from the following two-line orbital elements,

1  5730U 71119B   18169.52723416 +.00000975 +00000-0 +65833-4 0  9999
2  5730 073.8919 209.7052 0695722 018.6592 343.8725 14.02624627257056
Epoch (UTC): 18 June 2018 12:39:13
Eccentricity: 0.0695722
inclination: 73.8919°
perigee height: 379 km
apogee height: 1390 km
right ascension of ascending node: 209.7052°
argument of perigee: 18.6592°
revolutions per day: 14.02624627
mean anomaly at epoch: 343.8725°
orbit number at epoch: 25705

The dashed part of the orbit path shows where the satellite is in the earth's shadow,  

DLR